Zurück zum Katalog

DELTA 1 DEB

AktivLEO
NORAD 10234·DEBRIS·🇺🇸 United States

Gestartet Jul 14, 1977 von Cape Canaveral Space Force Station

Loading…

Nächste Überflüge (nächste 24 Stunden)

TLE

AktuellSource: Space-Track

Epoche: Sep 14, 2026, 11:25 UTC

1 10234U 77065BM  26257.47635586  .00005695  00000-0  36994-3 0  9990
2 10234  28.9447 322.5597 0267501  98.6978 264.4007 14.81091942494196

Verfolge DELTA 1 DEB in Echtzeit mit AllMySat

Download on the App Store